Location: ?
(35.3436°N, 139.3168°E)
Time: 22:47:24
(UTC+00:00)

N. Korean satellite - Visible Passes

Search period start: 22 January 2021 00:00
Search period end: 01 February 2021 00:00
Orbit: 452 x 502 km, 97.2° (Epoch: 22 January)

Date Brightness Start Highest point End Pass type
(mag) Time Alt. Az. Time Alt. Az. Time Alt. Az.
22 Jan 6.3 20:16:41 10° N 20:20:07 65° WNW 20:23:30 10° SSW visible
23 Jan 9.9 08:22:45 10° SW 08:25:01 16° W 08:27:17 10° NW visible
23 Jan 7.4 19:50:12 10° NNE 19:53:32 46° E 19:56:50 10° S visible
24 Jan 9.2 19:24:19 10° NE 19:26:53 19° E 19:29:24 10° SE visible
24 Jan 7.9 20:57:41 10° NNW 21:00:02 17° WNW 21:02:22 10° WSW visible
25 Jan 6.8 20:30:23 10° N 20:33:37 39° WNW 20:36:48 10° SW visible
26 Jan 10.6 08:38:21 10° W 08:38:40 10° W 08:38:59 10° W visible
26 Jan 6.5 20:03:39 10° NNE 20:07:05 78° E 20:10:28 10° S visible
27 Jan 8.4 19:37:24 10° NE 19:40:27 29° E 19:43:28 10° SSE visible
27 Jan 8.4 21:12:12 10° NW 21:13:26 12° WNW 21:14:40 10° W visible
28 Jan 9.7 19:12:05 10° ENE 19:13:44 13° E 19:15:22 10° ESE visible
28 Jan 7.4 20:44:11 10° NNW 20:47:03 25° WNW 20:49:54 10° SW visible
29 Jan 6.3 20:17:11 10° N 20:20:34 63° WNW 20:23:55 10° SSW visible
30 Jan 7.4 19:50:39 10° NNE 19:53:59 47° E 19:57:16 10° S visible
31 Jan 9.1 19:24:44 10° NE 19:27:18 20° E 19:29:51 10° SE visible
31 Jan 7.9 20:58:11 10° NNW 21:00:26 17° WNW 21:02:43 10° WSW visible
